Time,TemperatureF,DewpointF,PressureIn,WindDirection,WindDirectionDegrees,WindSpeedMPH,WindSpeedGustMPH,Humidity,HourlyPrecipIn,Conditions,Clouds,dailyrainin,SoftwareType,DateUTC
2013-07-23 00:00:00,69.8,69.8,29.80,North,0,0.0,0.0,100,0.00,,,0.00,meteo_script,2013-07-23 04:00:00,
2013-07-23 00:05:00,69.8,69.8,29.80,North,0,0.0,0.0,100,0.00,,,0.00,meteo_script,2013-07-23 04:05:00,
2013-07-23 00:10:00,69.8,69.8,29.80,NNW,332,0.0,1.0,100,0.00,,,0.00,meteo_script,2013-07-23 04:10:00,
2013-07-23 00:15:00,69.9,69.9,29.80,North,0,0.0,0.0,100,0.00,,,0.00,meteo_script,2013-07-23 04:15:00,
2013-07-23 00:20:00,69.9,69.8,29.80,North,0,0.0,0.0,100,0.00,,,0.00,meteo_script,2013-07-23 04:20:00,
2013-07-23 00:25:00,69.8,69.8,29.79,North,0,0.0,0.0,100,0.00,,,0.00,meteo_script,2013-07-23 04:25:00,
2013-07-23 00:35:00,69.8,69.8,29.79,North,0,0.0,0.0,100,0.00,,,0.00,meteo_script,2013-07-23 04:35:00,
2013-07-23 00:40:00,69.7,69.7,29.79,North,0,0.0,1.0,100,0.00,,,0.00,meteo_script,2013-07-23 04:40:00,
2013-07-23 00:45:00,69.8,69.8,29.79,North,0,0.0,0.0,100,0.00,,,0.00,meteo_script,2013-07-23 04:45:00,
2013-07-23 00:55:00,69.8,69.8,29.79,North,0,0.0,0.0,100,0.00,,,0.00,meteo_script,2013-07-23 04:55:00,
2013-07-23 01:00:00,69.7,69.7,29.78,North,0,0.0,0.0,100,0.00,,,0.00,meteo_script,2013-07-23 05:00:00,
2013-07-23 01:10:00,69.6,69.6,29.78,North,0,0.0,0.0,100,0.00,,,0.00,meteo_script,2013-07-23 05:10:00,
2013-07-23 01:15:00,69.6,69.6,29.78,North,0,0.0,0.0,100,0.00,,,0.00,meteo_script,2013-07-23 05:15:00,
2013-07-23 01:20:00,69.7,69.7,29.77,North,0,0.0,0.0,100,0.00,,,0.00,meteo_script,2013-07-23 05:20:00,
2013-07-23 01:30:00,69.5,69.5,29.76,North,0,0.0,0.0,100,0.00,,,0.00,meteo_script,2013-07-23 05:30:00,
2013-07-23 01:35:00,69.5,69.5,29.76,North,0,0.0,0.0,100,0.00,,,0.00,meteo_script,2013-07-23 05:35:00,
2013-07-23 01:40:00,69.5,69.5,29.76,North,0,0.0,0.0,100,0.00,,,0.00,meteo_script,2013-07-23 05:40:00,
2013-07-23 01:50:00,69.5,69.5,29.76,North,0,0.0,0.0,100,0.00,,,0.00,meteo_script,2013-07-23 05:50:00,
2013-07-23 01:55:00,69.4,69.4,29.76,North,0,0.0,0.0,100,0.00,,,0.00,meteo_script,2013-07-23 05:55:00,
2013-07-23 02:05:00,69.4,69.4,29.75,North,0,0.0,0.0,100,0.00,,,0.00,meteo_script,2013-07-23 06:05:00,
2013-07-23 02:10:00,69.4,69.4,29.75,North,0,0.0,0.0,100,0.00,,,0.00,meteo_script,2013-07-23 06:10:00,
2013-07-23 02:15:00,69.3,69.3,29.75,North,0,0.0,0.0,100,0.00,,,0.00,meteo_script,2013-07-23 06:15:00,
2013-07-23 02:25:00,69.2,69.2,29.74,North,0,0.0,0.0,100,0.00,,,0.00,meteo_script,2013-07-23 06:25:00,
2013-07-23 02:30:00,69.1,69.1,29.74,North,0,0.0,0.0,100,0.00,,,0.00,meteo_script,2013-07-23 06:30:00,
2013-07-23 02:40:00,69.0,69.0,29.74,North,0,0.0,0.0,100,0.00,,,0.00,meteo_script,2013-07-23 06:40:00,
2013-07-23 02:45:00,68.9,68.9,29.73,North,0,0.0,0.0,100,0.00,,,0.00,meteo_script,2013-07-23 06:45:00,
2013-07-23 02:50:00,68.8,68.8,29.73,North,0,0.0,0.0,100,0.00,,,0.00,meteo_script,2013-07-23 06:50:00,
2013-07-23 03:00:00,68.7,68.7,29.73,North,0,0.0,0.0,100,0.00,,,0.00,meteo_script,2013-07-23 07:00:00,
2013-07-23 03:05:00,68.7,68.7,29.72,North,0,0.0,1.0,100,0.00,,,0.00,meteo_script,2013-07-23 07:05:00,
2013-07-23 03:10:00,68.6,68.6,29.72,North,0,0.1,2.0,100,0.00,,,0.00,meteo_script,2013-07-23 07:10:00,
2013-07-23 03:20:00,68.6,68.6,29.71,NNW,334,0.1,1.0,100,0.00,,,0.00,meteo_script,2013-07-23 07:20:00,
2013-07-23 03:25:00,68.6,68.6,29.71,North,0,0.0,1.0,100,0.00,,,0.00,meteo_script,2013-07-23 07:25:00,
2013-07-23 03:35:00,68.5,68.5,29.71,North,0,0.0,0.0,100,0.00,,,0.00,meteo_script,2013-07-23 07:35:00,
2013-07-23 03:40:00,68.5,68.5,29.70,North,0,0.0,1.0,100,0.00,,,0.00,meteo_script,2013-07-23 07:40:00,
2013-07-23 03:45:00,68.5,68.5,29.70,North,0,0.0,1.0,100,0.00,,,0.00,meteo_script,2013-07-23 07:45:00,
2013-07-23 03:55:00,68.4,68.4,29.70,North,0,0.0,1.0,100,0.00,,,0.00,meteo_script,2013-07-23 07:55:00,
2013-07-23 04:00:00,68.4,68.4,29.69,North,0,0.0,0.0,100,0.00,,,0.00,meteo_script,2013-07-23 08:00:00,
2013-07-23 04:05:00,68.4,68.4,29.69,North,0,0.0,1.0,100,0.00,,,0.00,meteo_script,2013-07-23 08:05:00,
2013-07-23 04:15:00,68.4,68.4,29.69,North,0,0.0,1.0,100,0.00,,,0.00,meteo_script,2013-07-23 08:15:00,
2013-07-23 04:20:00,68.4,68.4,29.69,North,0,0.0,0.0,100,0.00,,,0.00,meteo_script,2013-07-23 08:20:00,
2013-07-23 04:30:00,68.4,68.4,29.68,North,0,0.0,1.0,100,0.00,,,0.00,meteo_script,2013-07-23 08:30:00,
2013-07-23 04:35:00,68.4,68.4,29.68,North,0,0.0,1.0,100,0.00,,,0.00,meteo_script,2013-07-23 08:35:00,
2013-07-23 04:45:00,68.4,68.4,29.68,North,0,0.0,0.0,100,0.00,,,0.00,meteo_script,2013-07-23 08:45:00,
2013-07-23 04:50:00,68.4,68.4,29.67,North,0,0.0,0.0,100,0.00,,,0.00,meteo_script,2013-07-23 08:50:00,
2013-07-23 04:55:00,68.4,68.4,29.67,North,0,0.0,0.0,100,0.00,,,0.00,meteo_script,2013-07-23 08:55:00,
2013-07-23 05:05:00,68.4,68.4,29.67,East,95,0.0,1.0,100,0.00,,,0.00,meteo_script,2013-07-23 09:05:00,
2013-07-23 05:10:00,68.4,68.4,29.67,North,0,0.0,0.0,100,0.00,,,0.00,meteo_script,2013-07-23 09:10:00,
2013-07-23 05:20:00,68.5,68.5,29.67,North,0,0.0,0.0,100,0.00,,,0.00,meteo_script,2013-07-23 09:20:00,
2013-07-23 05:25:00,68.5,68.5,29.67,North,0,0.0,0.0,100,0.01,,,0.01,meteo_script,2013-07-23 09:25:00,
2013-07-23 05:30:00,68.5,68.5,29.66,North,0,0.0,0.0,100,0.03,,,0.03,meteo_script,2013-07-23 09:30:00,
2013-07-23 05:40:00,68.5,68.5,29.66,North,0,0.0,0.0,100,0.05,,,0.05,meteo_script,2013-07-23 09:40:00,
2013-07-23 05:45:00,68.5,68.5,29.66,North,0,0.0,0.0,100,0.05,,,0.05,meteo_script,2013-07-23 09:45:00,
2013-07-23 05:50:00,68.6,68.6,29.66,North,0,0.0,0.0,100,0.05,,,0.05,meteo_script,2013-07-23 09:50:00,
2013-07-23 06:00:00,68.6,68.6,29.66,North,0,0.0,0.0,100,0.06,,,0.06,meteo_script,2013-07-23 10:00:00,
2013-07-23 06:05:00,68.6,68.6,29.66,North,0,0.0,0.0,100,0.06,,,0.06,meteo_script,2013-07-23 10:05:00,
2013-07-23 06:10:00,68.6,68.6,29.65,North,0,0.0,1.0,100,0.07,,,0.07,meteo_script,2013-07-23 10:10:00,
2013-07-23 06:20:00,68.7,68.7,29.65,North,0,0.0,0.0,100,0.07,,,0.07,meteo_script,2013-07-23 10:20:00,
2013-07-23 06:25:00,68.7,68.7,29.64,SSE,168,0.0,1.0,100,0.06,,,0.07,meteo_script,2013-07-23 10:25:00,
2013-07-23 06:30:00,68.7,68.7,29.64,North,0,0.0,1.0,100,0.04,,,0.07,meteo_script,2013-07-23 10:30:00,
2013-07-23 06:35:00,68.8,68.8,29.64,North,0,0.0,0.0,100,0.04,,,0.08,meteo_script,2013-07-23 10:35:00,
2013-07-23 06:45:00,68.8,68.8,29.64,North,0,0.1,2.0,100,0.06,,,0.11,meteo_script,2013-07-23 10:45:00,
2013-07-23 06:50:00,68.8,68.8,29.64,North,0,0.0,0.0,100,0.08,,,0.13,meteo_script,2013-07-23 10:50:00,
2013-07-23 06:55:00,68.9,68.9,29.63,NNW,328,0.0,2.0,100,0.08,,,0.14,meteo_script,2013-07-23 10:55:00,
2013-07-23 07:05:00,68.9,68.9,29.63,North,0,0.0,2.0,100,0.10,,,0.16,meteo_script,2013-07-23 11:05:00,
2013-07-23 07:10:00,68.9,68.9,29.63,WSW,254,0.1,1.0,100,0.10,,,0.17,meteo_script,2013-07-23 11:10:00,
2013-07-23 07:20:00,68.9,68.9,29.62,WSW,254,0.0,1.0,100,0.14,,,0.21,meteo_script,2013-07-23 11:20:00,
2013-07-23 07:30:00,69.0,69.0,29.62,North,0,0.0,0.0,100,0.16,,,0.23,meteo_script,2013-07-23 11:30:00,
2013-07-23 07:35:00,69.0,69.0,29.62,North,0,0.0,0.0,100,0.15,,,0.23,meteo_script,2013-07-23 11:35:00,
2013-07-23 07:40:00,69.1,69.1,29.62,North,0,0.0,0.0,100,0.14,,,0.24,meteo_script,2013-07-23 11:40:00,
2013-07-23 07:50:00,69.1,69.1,29.62,North,0,0.0,0.0,100,0.14,,,0.27,meteo_script,2013-07-23 11:50:00,
2013-07-23 07:55:00,69.1,69.1,29.62,North,0,0.0,0.0,100,0.15,,,0.29,meteo_script,2013-07-23 11:55:00,
2013-07-23 08:00:00,69.1,69.1,29.62,North,0,0.0,0.0,100,0.14,,,0.29,meteo_script,2013-07-23 12:00:00,
2013-07-23 08:05:00,69.1,69.1,29.61,North,0,0.0,0.0,100,0.14,,,0.30,meteo_script,2013-07-23 12:05:00,
2013-07-23 08:15:00,69.3,69.3,29.61,North,0,0.0,0.0,100,0.14,,,0.33,meteo_script,2013-07-23 12:15:00,
2013-07-23 08:20:00,69.4,69.4,29.60,North,0,0.0,1.0,100,0.12,,,0.33,meteo_script,2013-07-23 12:20:00,
2013-07-23 08:30:00,69.6,69.6,29.60,North,0,0.0,0.0,100,0.11,,,0.34,meteo_script,2013-07-23 12:30:00,
2013-07-23 08:35:00,69.6,69.6,29.60,North,0,0.0,0.0,100,0.12,,,0.35,meteo_script,2013-07-23 12:35:00,
2013-07-23 08:45:00,69.7,69.7,29.60,North,0,0.0,0.0,100,0.10,,,0.35,meteo_script,2013-07-23 12:45:00,
2013-07-23 08:50:00,69.7,69.7,29.59,North,0,0.0,0.0,100,0.09,,,0.36,meteo_script,2013-07-23 12:50:00,
2013-07-23 08:55:00,69.8,69.8,29.60,North,0,0.0,0.0,100,0.08,,,0.37,meteo_script,2013-07-23 12:55:00,
2013-07-23 09:00:00,69.8,69.8,29.59,North,0,0.0,0.0,100,0.08,,,0.37,meteo_script,2013-07-23 13:00:00,
2013-07-23 09:05:00,69.9,69.9,29.59,North,0,0.0,0.0,100,0.07,,,0.37,meteo_script,2013-07-23 13:05:00,
2013-07-23 09:10:00,69.9,69.9,29.59,North,0,0.0,0.0,100,0.06,,,0.37,meteo_script,2013-07-23 13:10:00,
2013-07-23 09:20:00,70.0,70.0,29.59,North,0,0.0,1.0,100,0.04,,,0.37,meteo_script,2013-07-23 13:20:00,
2013-07-23 09:25:00,70.1,70.1,29.58,North,0,0.0,0.0,100,0.03,,,0.37,meteo_script,2013-07-23 13:25:00,
2013-07-23 09:35:00,70.1,70.1,29.58,North,0,0.0,0.0,100,0.02,,,0.37,meteo_script,2013-07-23 13:35:00,
2013-07-23 09:40:00,70.2,70.2,29.58,North,0,0.0,0.0,100,0.02,,,0.37,meteo_script,2013-07-23 13:40:00,
2013-07-23 09:50:00,70.6,70.6,29.58,North,0,0.0,0.0,100,0.01,,,0.37,meteo_script,2013-07-23 13:50:00,
2013-07-23 09:55:00,70.7,70.7,29.57,North,0,0.0,0.0,100,0.00,,,0.37,meteo_script,2013-07-23 13:55:00,
2013-07-23 10:00:00,70.9,70.9,29.57,North,0,0.0,0.0,100,0.00,,,0.37,meteo_script,2013-07-23 14:00:00,
2013-07-23 10:05:00,71.2,71.2,29.57,North,0,0.0,0.0,100,0.00,,,0.37,meteo_script,2013-07-23 14:05:00,
2013-07-23 10:15:00,71.4,71.4,29.57,North,0,0.0,0.0,100,0.01,,,0.38,meteo_script,2013-07-23 14:15:00,
2013-07-23 10:20:00,71.5,71.5,29.56,North,0,0.0,0.0,100,0.02,,,0.39,meteo_script,2013-07-23 14:20:00,
2013-07-23 10:30:00,71.8,71.8,29.56,North,0,0.0,0.0,100,0.02,,,0.39,meteo_script,2013-07-23 14:30:00,
2013-07-23 10:35:00,71.9,71.9,29.55,North,0,0.0,0.0,100,0.02,,,0.39,meteo_script,2013-07-23 14:35:00,
2013-07-23 10:45:00,72.1,72.1,29.55,North,0,0.0,0.0,100,0.04,,,0.41,meteo_script,2013-07-23 14:45:00,
2013-07-23 10:55:00,72.1,72.1,29.54,North,0,0.0,0.0,100,0.05,,,0.42,meteo_script,2013-07-23 14:55:00,
2013-07-23 11:05:00,72.2,72.2,29.54,North,0,0.0,0.0,100,0.06,,,0.43,meteo_script,2013-07-23 15:05:00,
2013-07-23 11:15:00,72.2,72.2,29.55,North,0,0.0,0.0,100,0.05,,,0.43,meteo_script,2013-07-23 15:15:00,
2013-07-23 11:20:00,72.1,72.1,29.54,North,0,0.0,0.0,100,0.04,,,0.43,meteo_script,2013-07-23 15:20:00,
2013-07-23 11:30:00,71.8,71.8,29.54,WSW,253,0.0,1.0,100,0.05,,,0.44,meteo_script,2013-07-23 15:30:00,
2013-07-23 11:35:00,71.6,71.6,29.53,North,0,0.0,1.0,100,0.08,,,0.47,meteo_script,2013-07-23 15:35:00,
2013-07-23 11:40:00,71.5,71.5,29.53,North,0,0.1,2.0,100,0.14,,,0.54,meteo_script,2013-07-23 15:40:00,
2013-07-23 11:50:00,71.2,71.2,29.53,North,0,0.0,0.0,100,0.35,,,0.77,meteo_script,2013-07-23 15:50:00,
2013-07-23 11:55:00,71.2,71.2,29.53,North,0,0.0,0.0,100,0.43,,,0.85,meteo_script,2013-07-23 15:55:00,
2013-07-23 12:05:00,71.0,71.0,29.53,North,0,0.2,2.0,100,0.46,,,0.89,meteo_script,2013-07-23 16:05:00,
2013-07-23 12:10:00,70.9,70.9,29.52,WSW,253,0.2,1.0,100,0.55,,,0.98,meteo_script,2013-07-23 16:10:00,
2013-07-23 12:15:00,70.9,70.9,29.52,North,0,0.1,0.0,100,0.64,,,1.07,meteo_script,2013-07-23 16:15:00,
2013-07-23 12:25:00,71.0,71.0,29.52,North,0,0.0,0.0,100,0.67,,,1.11,meteo_script,2013-07-23 16:25:00,
2013-07-23 12:30:00,71.0,71.0,29.51,North,0,0.0,0.0,100,0.75,,,1.19,meteo_script,2013-07-23 16:30:00,
2013-07-23 12:40:00,71.0,71.0,29.51,North,0,0.0,0.0,100,0.69,,,1.23,meteo_script,2013-07-23 16:40:00,
2013-07-23 12:45:00,71.0,71.0,29.51,North,0,0.0,1.0,100,0.55,,,1.24,meteo_script,2013-07-23 16:45:00,
2013-07-23 12:50:00,70.9,70.9,29.50,North,0,0.0,0.0,100,0.47,,,1.24,meteo_script,2013-07-23 16:50:00,
2013-07-23 13:00:00,70.6,70.6,29.50,North,0,0.0,1.0,100,0.36,,,1.24,meteo_script,2013-07-23 17:00:00,
2013-07-23 13:05:00,71.1,71.1,29.50,North,0,0.0,0.0,100,0.35,,,1.24,meteo_script,2013-07-23 17:05:00,
2013-07-23 13:15:00,73.5,73.5,29.50,North,0,0.1,2.0,100,0.17,,,1.24,meteo_script,2013-07-23 17:15:00,
2013-07-23 13:20:00,73.5,73.5,29.50,North,0,0.1,0.0,100,0.15,,,1.24,meteo_script,2013-07-23 17:20:00,
2013-07-23 13:25:00,73.8,73.8,29.50,North,0,0.0,1.0,100,0.13,,,1.24,meteo_script,2013-07-23 17:25:00,
2013-07-23 13:35:00,75.3,75.3,29.49,North,0,0.0,0.0,100,0.02,,,1.24,meteo_script,2013-07-23 17:35:00,
2013-07-23 13:40:00,76.6,76.6,29.49,North,0,0.0,1.0,100,0.01,,,1.24,meteo_script,2013-07-23 17:40:00,
2013-07-23 13:50:00,76.2,76.2,29.49,North,0,0.0,0.0,100,0.00,,,1.24,meteo_script,2013-07-23 17:50:00,
2013-07-23 13:55:00,75.5,75.5,29.49,North,0,0.0,0.0,100,0.00,,,1.24,meteo_script,2013-07-23 17:55:00,
2013-07-23 14:00:00,76.2,76.2,29.48,North,0,0.0,1.0,100,0.00,,,1.24,meteo_script,2013-07-23 18:00:00,
2013-07-23 14:05:00,77.6,77.6,29.48,North,0,0.0,0.0,100,0.00,,,1.24,meteo_script,2013-07-23 18:05:00,
2013-07-23 14:15:00,77.8,77.8,29.48,North,0,0.0,0.0,100,0.00,,,1.24,meteo_script,2013-07-23 18:15:00,
2013-07-23 14:20:00,78.4,78.4,29.48,North,0,0.0,0.0,100,0.00,,,1.24,meteo_script,2013-07-23 18:20:00,
2013-07-23 14:30:00,80.1,80.1,29.47,WSW,254,0.1,1.0,100,0.00,,,1.24,meteo_script,2013-07-23 18:30:00,
2013-07-23 14:36:00,80.3,80.3,29.48,North,0,0.1,1.0,100,0.00,,,1.24,meteo_script,2013-07-23 18:36:00,
2013-07-23 14:45:00,80.1,80.1,29.47,WSW,252,0.1,1.0,100,0.00,,,1.24,meteo_script,2013-07-23 18:45:00,
2013-07-23 14:50:00,79.7,79.7,29.47,West,270,0.1,3.0,100,0.00,,,1.24,meteo_script,2013-07-23 18:50:00,
2013-07-23 15:00:00,78.3,78.3,29.46,West,267,0.1,1.0,100,0.00,,,1.24,meteo_script,2013-07-23 19:00:00,
2013-07-23 15:05:00,77.9,77.9,29.47,West,265,0.1,2.0,100,0.00,,,1.24,meteo_script,2013-07-23 19:05:00,
2013-07-23 15:15:00,76.9,76.9,29.47,North,0,0.0,0.0,100,0.00,,,1.24,meteo_script,2013-07-23 19:15:00,
2013-07-23 15:20:00,76.3,76.3,29.47,North,0,0.0,0.0,100,0.00,,,1.24,meteo_script,2013-07-23 19:20:00,
2013-07-23 15:25:00,75.7,75.7,29.49,North,0,0.0,0.0,100,0.07,,,1.31,meteo_script,2013-07-23 19:25:00,
2013-07-23 15:30:00,75.4,75.4,29.50,West,266,0.2,3.0,100,0.37,,,1.61,meteo_script,2013-07-23 19:30:00,
2013-07-23 15:36:00,74.1,74.1,29.48,West,266,0.4,2.0,100,0.69,,,1.93,meteo_script,2013-07-23 19:36:00,
2013-07-23 15:46:00,73.0,73.0,29.48,West,267,0.2,2.0,100,0.74,,,1.98,meteo_script,2013-07-23 19:46:00,
2013-07-23 15:55:00,73.0,73.0,29.48,North,0,0.0,0.0,100,0.74,,,1.98,meteo_script,2013-07-23 19:55:00,
2013-07-23 16:00:00,73.2,73.2,29.48,North,0,0.0,1.0,100,0.74,,,1.98,meteo_script,2013-07-23 20:00:00,
2013-07-23 16:10:00,73.2,73.2,29.48,North,0,0.0,0.0,100,0.75,,,1.99,meteo_script,2013-07-23 20:10:00,
2013-07-23 16:15:00,72.9,72.9,29.48,North,0,0.0,0.0,100,0.75,,,1.99,meteo_script,2013-07-23 20:15:00,
2013-07-23 16:25:00,72.6,72.6,29.47,North,0,0.0,0.0,100,0.68,,,1.99,meteo_script,2013-07-23 20:25:00,
2013-07-23 16:30:00,72.6,72.6,29.47,North,0,0.0,0.0,100,0.38,,,1.99,meteo_script,2013-07-23 20:30:00,
2013-07-23 16:35:00,72.6,72.6,29.47,North,0,0.0,0.0,100,0.06,,,1.99,meteo_script,2013-07-23 20:35:00,
2013-07-23 16:45:00,72.6,72.6,29.46,North,0,0.0,0.0,100,0.01,,,1.99,meteo_script,2013-07-23 20:45:00,
2013-07-23 16:50:00,72.7,72.7,29.47,North,0,0.0,0.0,100,0.02,,,2.00,meteo_script,2013-07-23 20:50:00,
2013-07-23 16:55:00,73.3,73.3,29.47,North,0,0.0,1.0,100,0.02,,,2.00,meteo_script,2013-07-23 20:55:00,
2013-07-23 17:05:00,74.1,74.1,29.47,North,0,0.0,0.0,100,0.02,,,2.01,meteo_script,2013-07-23 21:05:00,
2013-07-23 17:10:00,74.4,74.4,29.46,North,0,0.0,0.0,100,0.02,,,2.01,meteo_script,2013-07-23 21:10:00,
2013-07-23 17:20:00,74.1,74.1,29.46,West,266,0.0,1.0,100,0.02,,,2.01,meteo_script,2013-07-23 21:20:00,
2013-07-23 17:25:00,73.9,73.9,29.46,North,0,0.0,1.0,100,0.02,,,2.01,meteo_script,2013-07-23 21:25:00,
2013-07-23 17:30:00,73.8,73.8,29.46,North,0,0.0,0.0,100,0.02,,,2.01,meteo_script,2013-07-23 21:30:00,
2013-07-23 17:41:00,73.6,73.6,29.46,North,0,0.0,0.0,100,0.02,,,2.01,meteo_script,2013-07-23 21:41:00,
2013-07-23 17:50:00,73.6,73.6,29.46,North,0,0.0,0.0,100,0.01,,,2.01,meteo_script,2013-07-23 21:50:00,
2013-07-23 17:55:00,73.7,73.7,29.46,North,0,0.0,0.0,100,0.01,,,2.01,meteo_script,2013-07-23 21:55:00,
2013-07-23 18:00:00,73.7,73.7,29.47,North,0,0.0,0.0,100,0.01,,,2.01,meteo_script,2013-07-23 22:00:00,
2013-07-23 18:05:00,73.7,73.7,29.47,North,0,0.0,0.0,100,0.00,,,2.01,meteo_script,2013-07-23 22:05:00,
2013-07-23 18:15:00,73.9,73.9,29.47,North,0,0.0,0.0,100,0.00,,,2.01,meteo_script,2013-07-23 22:15:00,
2013-07-23 18:20:00,73.8,73.8,29.47,North,0,0.0,0.0,100,0.00,,,2.01,meteo_script,2013-07-23 22:20:00,
2013-07-23 18:30:00,74.0,74.0,29.48,North,0,0.0,0.0,100,0.00,,,2.01,meteo_script,2013-07-23 22:30:00,
2013-07-23 18:35:00,74.1,74.1,29.48,North,0,0.0,0.0,100,0.00,,,2.01,meteo_script,2013-07-23 22:35:00,
2013-07-23 18:40:00,73.9,73.9,29.48,North,0,0.0,0.0,100,0.00,,,2.01,meteo_script,2013-07-23 22:40:00,
2013-07-23 18:46:00,73.9,73.9,29.48,North,0,0.0,0.0,100,0.00,,,2.01,meteo_script,2013-07-23 22:46:00,
2013-07-23 18:51:00,73.8,73.8,29.48,North,0,0.0,0.0,100,0.00,,,2.01,meteo_script,2013-07-23 22:51:00,
2013-07-23 19:00:00,73.7,73.7,29.49,North,0,0.0,0.0,100,0.00,,,2.01,meteo_script,2013-07-23 23:00:00,
2013-07-23 19:05:00,73.6,73.6,29.49,North,0,0.0,0.0,100,0.00,,,2.01,meteo_script,2013-07-23 23:05:00,
2013-07-23 19:10:00,73.6,73.6,29.48,North,0,0.0,0.0,100,0.00,,,2.01,meteo_script,2013-07-23 23:10:00,
2013-07-23 19:15:00,73.5,73.5,29.49,North,0,0.0,0.0,100,0.00,,,2.01,meteo_script,2013-07-23 23:15:00,
2013-07-23 19:25:00,73.4,73.4,29.49,North,0,0.0,0.0,100,0.00,,,2.01,meteo_script,2013-07-23 23:25:00,
2013-07-23 19:30:00,73.4,73.4,29.50,North,0,0.0,0.0,100,0.00,,,2.01,meteo_script,2013-07-23 23:30:00,
2013-07-23 19:40:00,73.5,73.5,29.50,North,0,0.0,0.0,100,0.00,,,2.01,meteo_script,2013-07-23 23:40:00,
2013-07-23 19:45:00,73.6,73.6,29.51,North,0,0.0,0.0,100,0.00,,,2.01,meteo_script,2013-07-23 23:45:00,
2013-07-23 19:55:00,73.5,73.5,29.51,North,0,0.0,0.0,100,0.00,,,2.01,meteo_script,2013-07-23 23:55:00,
2013-07-23 20:00:00,73.7,73.7,29.51,North,0,0.0,0.0,100,0.00,,,2.01,meteo_script,2013-07-24 00:00:00,
2013-07-23 20:10:00,73.7,73.7,29.51,North,0,0.0,0.0,100,0.00,,,2.01,meteo_script,2013-07-24 00:10:00,
2013-07-23 20:15:00,73.6,73.6,29.51,North,0,0.0,0.0,100,0.00,,,2.01,meteo_script,2013-07-24 00:15:00,
2013-07-23 20:25:00,73.3,73.3,29.51,North,0,0.0,0.0,100,0.00,,,2.01,meteo_script,2013-07-24 00:25:00,
2013-07-23 20:30:00,73.2,73.2,29.51,North,0,0.0,0.0,100,0.00,,,2.01,meteo_script,2013-07-24 00:30:00,
2013-07-23 20:40:00,73.1,73.1,29.50,North,0,0.0,0.0,100,0.00,,,2.01,meteo_script,2013-07-24 00:40:00,
2013-07-23 20:45:00,73.0,73.0,29.50,North,0,0.0,0.0,100,0.00,,,2.01,meteo_script,2013-07-24 00:45:00,
2013-07-23 20:50:00,72.9,72.9,29.50,North,0,0.0,0.0,100,0.00,,,2.01,meteo_script,2013-07-24 00:50:00,
2013-07-23 21:01:00,72.7,72.7,29.51,North,0,0.0,0.0,100,0.00,,,2.01,meteo_script,2013-07-24 01:01:00,
2013-07-23 21:10:00,72.6,72.6,29.52,North,0,0.0,0.0,100,0.00,,,2.01,meteo_script,2013-07-24 01:10:00,
2013-07-23 21:20:00,72.5,72.5,29.51,North,0,0.0,0.0,100,0.00,,,2.01,meteo_script,2013-07-24 01:20:00,
2013-07-23 21:25:00,72.4,72.4,29.51,West,266,0.0,1.0,100,0.00,,,2.01,meteo_script,2013-07-24 01:25:00,
2013-07-23 21:35:00,72.3,72.3,29.51,North,0,0.0,0.0,100,0.00,,,2.01,meteo_script,2013-07-24 01:35:00,
2013-07-23 21:41:00,72.3,72.3,29.52,North,0,0.0,0.0,100,0.00,,,2.01,meteo_script,2013-07-24 01:41:00,
2013-07-23 21:50:00,72.2,72.2,29.52,North,0,0.0,0.0,100,0.00,,,2.01,meteo_script,2013-07-24 01:50:00,
2013-07-23 21:55:00,72.2,72.2,29.52,North,0,0.0,0.0,100,0.00,,,2.01,meteo_script,2013-07-24 01:55:00,
2013-07-23 22:00:00,72.1,72.1,29.52,North,0,0.0,0.0,100,0.00,,,2.01,meteo_script,2013-07-24 02:00:00,
2013-07-23 22:06:00,72.1,72.1,29.51,North,0,0.0,0.0,100,0.00,,,2.01,meteo_script,2013-07-24 02:06:00,
2013-07-23 22:15:00,72.1,72.1,29.51,North,0,0.0,0.0,100,0.00,,,2.01,meteo_script,2013-07-24 02:15:00,
2013-07-23 22:25:00,72.2,72.2,29.52,North,0,0.0,0.0,100,0.00,,,2.01,meteo_script,2013-07-24 02:25:00,
2013-07-23 22:31:00,72.2,72.2,29.53,North,0,0.0,0.0,100,0.00,,,2.01,meteo_script,2013-07-24 02:31:00,
2013-07-23 22:40:00,72.2,72.2,29.52,North,0,0.0,0.0,100,0.00,,,2.01,meteo_script,2013-07-24 02:40:00,
2013-07-23 22:45:00,72.1,72.1,29.52,North,0,0.0,0.0,100,0.00,,,2.01,meteo_script,2013-07-24 02:45:00,
2013-07-23 22:50:00,72.1,72.0,29.52,North,0,0.0,0.0,100,0.00,,,2.01,meteo_script,2013-07-24 02:50:00,
2013-07-23 22:55:00,72.0,72.0,29.52,North,0,0.0,0.0,100,0.00,,,2.01,meteo_script,2013-07-24 02:55:00,
2013-07-23 23:05:00,71.8,71.8,29.52,North,0,0.0,0.0,100,0.00,,,2.01,meteo_script,2013-07-24 03:05:00,
2013-07-23 23:10:00,71.7,71.7,29.52,North,0,0.0,0.0,100,0.00,,,2.01,meteo_script,2013-07-24 03:10:00,
2013-07-23 23:15:00,71.6,71.6,29.52,North,0,0.0,0.0,100,0.00,,,2.01,meteo_script,2013-07-24 03:15:00,
2013-07-23 23:21:00,71.5,71.5,29.52,North,0,0.0,0.0,100,0.00,,,2.01,meteo_script,2013-07-24 03:21:00,
2013-07-23 23:30:00,71.5,71.5,29.52,North,0,0.0,0.0,100,0.00,,,2.01,meteo_script,2013-07-24 03:30:00,
2013-07-23 23:40:00,71.6,71.6,29.52,North,0,0.0,0.0,100,0.00,,,2.01,meteo_script,2013-07-24 03:40:00,
2013-07-23 23:45:00,71.5,71.5,29.52,North,0,0.0,0.0,100,0.00,,,2.01,meteo_script,2013-07-24 03:45:00,
2013-07-23 23:55:00,71.4,71.4,29.52,North,0,0.0,0.0,100,0.00,,,2.01,meteo_script,2013-07-24 03:55:00,